Orbital Elements at Epoch 2459000.5 (2020-May-31.0) TDB
Reference: JPL 13 (heliocentric ecliptic J2000)
Element | Value | Uncertainty (1-sigma) | Units |
e | .2871551040377835 | 5.8939e-08 | |
a | 2.697922914389569 | 1.7999e-08 | au |
q | 1.923200579222112 | 1.5934e-07 | au |
i | 14.85007686649263 | 7.2146e-06 | deg |
node | 313.1720119870265 | 2.0718e-05 | deg |
peri | 47.90266827523515 | 2.3654e-05 | deg |
M | 259.1119230055426 | 1.3129e-05 | deg |
tp | 2459454.107342019416 (2021-Aug-27.60734202) | 6.258e-05 | TDB |
period | 1618.611911256482 4.43 | 1.6198e-05 4.435e-08 | d yr |
n | .2224127954924923 | 2.2257e-09 | deg/d |
Q | 3.472645249557026 | 2.3168e-08 | au |
|
| | Orbit Determination Parameters
Additional Information
|